Regional Weather Roundup
Issued by NWS Binghamton, NY

Home | Current Version | Previous Version | Text Only | Print | Product List | Glossary On
Versions: 1 2 3 4 5 6 7 8 9 10 11 12 13 14 15 16 17 18 19 20 21 22 23 24 25 26 27 28 29 30 31 32 33 34 35 36 37 38 39 40 41 42 43 44 45 46 47 48 49 50
000
ASUS41 KBGM 200510
RWRBGM

REGIONAL WEATHER ROUNDUP
NATIONAL WEATHER SERVICE BINGHAMTON NY
100 AM EDT FRI JUL 20 2018

Note: "fair" indicates few or no clouds below 12,000 feet with no
significant weather and/or obstructions to visibility.

* = Station(s) that does not report precipitation, such as rain,
snow, etc, also no thunder or fog.

NYZ009-015>018-022>025-036-037-044>046-055>057-062-200600
...Central New York...

CITY           SKY/WX    TMP DP  RH WIND       PRES   REMARKS
Binghamton     FAIR      61  51  70 SE5       30.14R
Cortland       FAIR      54  52  94 CALM      30.13S
Dansville      FAIR      62  56  80 S3        30.10R
Elmira         FAIR      57  54  89 CALM      30.11R
Seneca Falls   CLEAR     64  54  68 CALM      30.09S
Ithaca         FAIR      59  50  72 E6        30.12R
Hamilton       CLEAR     52  52 100 CALM      30.14S
Monticello       N/A    N/A N/A N/A MISG        N/A
Oneonta        CLEAR     61  48  63 CALM      30.15S
Penn Yan       FAIR      64  57  78 SW6       30.10S
Rome           FAIR      59  55  87 CALM      30.12F
Sidney         CLEAR     54  54 100 CALM      30.15S
Syracuse       FAIR      62  57  83 E5        30.08S
$$

PAZ038>040-043-044-047-048-072-200600
...Northeast Pennsylvania...

CITY           SKY/WX    TMP DP  RH WIND       PRES   REMARKS
Hazleton       FAIR      52  43  71 CALM      30.18S
Scranton       FAIR      61  53  75 E8        30.13S
$$
&&
KEY
WCI = Wind Chill Index
VSB = Visibility
HX  = Heat Index
$$



USA.gov is the U.S. government's official web portal to all federal, state and local government web resources and services.